TimeMST,TemperatureF,Dew PointF,Humidity,Sea Level PressureIn,VisibilityMPH,Wind Direction,Wind SpeedMPH,Gust SpeedMPH,PrecipitationIn,Events,Conditions,WindDirDegrees,DateUTC
12:53 AM,-5.1,-11.0,76,30.20,10.0,NE,5.8,-,N/A,,Clear,40,2013-03-05 07:53:00
1:53 AM,1.9,-9.9,58,30.20,10.0,North,10.4,18.4,N/A,,Clear,360,2013-03-05 08:53:00
2:53 AM,3.9,-11.0,50,30.23,10.0,NE,8.1,17.3,N/A,,Clear,40,2013-03-05 09:53:00
3:53 AM,8.1,-14.1,36,30.23,10.0,NNE,12.7,21.9,N/A,,Clear,20,2013-03-05 10:53:00
4:53 AM,6.1,-11.9,44,30.27,10.0,NE,9.2,18.4,N/A,,Clear,40,2013-03-05 11:53:00
5:53 AM,5.0,-11.0,48,30.31,10.0,NE,11.5,18.4,N/A,,Clear,40,2013-03-05 12:53:00
6:53 AM,7.0,-11.9,42,30.35,10.0,NNE,12.7,20.7,N/A,,Clear,30,2013-03-05 13:53:00
7:53 AM,12.0,-9.9,37,30.34,10.0,NNE,11.5,-,N/A,,Clear,20,2013-03-05 14:53:00
8:53 AM,21.9,-2.9,34,30.31,10.0,NE,6.9,-,N/A,,Clear,40,2013-03-05 15:53:00
9:53 AM,28.0,-15.0,15,30.28,10.0,NE,5.8,-,N/A,,Clear,40,2013-03-05 16:53:00
10:53 AM,33.1,-15.0,12,30.24,10.0,NNW,8.1,-,N/A,,Clear,330,2013-03-05 17:53:00
11:53 AM,35.1,-8.0,16,30.25,10.0,WNW,12.7,19.6,N/A,,Clear,300,2013-03-05 18:53:00
12:53 PM,36.0,-9.9,14,30.24,10.0,North,9.2,17.3,N/A,,Clear,10,2013-03-05 19:53:00
1:53 PM,39.0,-7.1,14,30.16,10.0,NNW,6.9,-,N/A,,Clear,330,2013-03-05 20:53:00
2:53 PM,39.0,-5.1,15,30.14,10.0,North,8.1,-,N/A,,Clear,350,2013-03-05 21:53:00
3:53 PM,37.9,-5.1,16,30.12,10.0,North,10.4,-,N/A,,Clear,350,2013-03-05 22:53:00
4:53 PM,39.0,-7.1,14,30.11,10.0,North,5.8,-,N/A,,Clear,350,2013-03-05 23:53:00
5:53 PM,32.0,-2.9,22,30.16,10.0,North,3.5,-,N/A,,Clear,10,2013-03-06 00:53:00
6:53 PM,27.0,-4.0,26,30.19,10.0,East,3.5,-,N/A,,Clear,80,2013-03-06 01:53:00
7:53 PM,19.0,-4.0,36,30.20,10.0,Calm,Calm,-,N/A,,Clear,0,2013-03-06 02:53:00
8:53 PM,14.0,-6.0,41,30.18,10.0,NNE,4.6,-,N/A,,Clear,30,2013-03-06 03:53:00
9:53 PM,12.9,-9.9,35,30.14,10.0,ESE,3.5,-,N/A,,Clear,110,2013-03-06 04:53:00
10:53 PM,17.1,-9.9,30,30.08,10.0,NE,3.5,-,N/A,,Clear,50,2013-03-06 05:53:00
11:53 PM,12.0,-6.0,44,30.10,10.0,Calm,Calm,-,N/A,,Clear,0,2013-03-06 06:53:00